owner,sensor,date,latitude,longitude,vertical_datum,direction_of_sea_water_velocity,sea_water_speed,upward_sea_water_velocity,qcFlag 
TABS,ioos:station:wmo:42049:1,2013-08-01T00:00:00Z,28.3507,-96.0058,2.0,222.7456687,11.50645906,-99999.0,'11111222,11111222,99999999' 
TABS,ioos:station:wmo:42049:1,2013-08-01T00:30:00Z,28.3507,-96.0058,2.0,237.2205751,12.56,-99999.0,'11111222,11111222,99999999' 
TABS,ioos:station:wmo:42049:1,2013-08-01T01:00:00Z,28.3507,-96.0058,2.0,255.8652115,9.910020182,-99999.0,'11133222,11111222,99999999' 
TABS,ioos:station:wmo:42049:1,2013-08-01T01:30:00Z,28.3507,-96.0058,2.0,253.1712851,5.526671693,-99999.0,'11133222,11111222,99999999' 
TABS,ioos:station:wmo:42049:1,2013-08-01T02:00:00Z,28.3507,-96.0058,2.0,267.8493134,7.995630056,-99999.0,'11133222,11111222,99999999' 
TABS,ioos:station:wmo:42049:1,2013-08-01T02:30:00Z,28.3507,-96.0058,2.0,279.2870383,12.33162601,-99999.0,'11111222,11111222,99999999' 
TABS,ioos:station:wmo:42049:1,2013-08-01T03:00:00Z,28.3507,-96.0058,2.0,283.3569378,13.28946199,-99999.0,'11111222,11111222,99999999' 
TABS,ioos:station:wmo:42049:1,2013-08-01T03:30:00Z,28.3507,-96.0058,2.0,298.1104723,13.43470878,-99999.0,'11111222,11111222,99999999' 
TABS,ioos:station:wmo:42049:1,2013-08-01T04:00:00Z,28.3507,-96.0058,2.0,308.7606243,14.24775421,-99999.0,'11111222,11111222,99999999' 
TABS,ioos:station:wmo:42049:1,2013-08-01T04:30:00Z,28.3507,-96.0058,2.0,315.1382111,11.75214874,-99999.0,'11111222,11111222,99999999' 
TABS,ioos:station:wmo:42049:1,2013-08-01T05:00:00Z,28.3507,-96.0058,2.0,316.6309445,11.67906246,-99999.0,'11111222,11111222,99999999' 
TABS,ioos:station:wmo:42049:1,2013-08-01T05:30:00Z,28.3507,-96.0058,2.0,323.8244183,11.06281158,-99999.0,'11111222,11111222,99999999' 
TABS,ioos:station:wmo:42049:1,2013-08-01T06:00:00Z,28.3507,-96.0058,2.0,328.9721802,10.68951355,-99999.0,'11111222,11111222,99999999' 
TABS,ioos:station:wmo:42049:1,2013-08-01T06:30:00Z,28.3507,-96.0058,2.0,327.7275198,8.858498744,-99999.0,'11133222,11111222,99999999' 
TABS,ioos:station:wmo:42049:1,2013-08-01T07:00:00Z,28.3507,-96.0058,2.0,337.4349553,8.078465201,-99999.0,'11133222,11111222,99999999' 
TABS,ioos:station:wmo:42049:1,2013-08-01T07:30:00Z,28.3507,-96.0058,2.0,337.6605565,7.708553691,-99999.0,'11133222,11111222,99999999' 
TABS,ioos:station:wmo:42049:1,2013-08-01T08:00:00Z,28.3507,-96.0058,2.0,328.9513495,6.921690545,-99999.0,'11133222,11111222,99999999' 
TABS,ioos:station:wmo:42049:1,2013-08-01T08:30:00Z,28.3507,-96.0058,2.0,328.5327407,4.291060475,-99999.0,'11133222,11111222,99999999' 
TABS,ioos:station:wmo:42049:1,2013-08-01T09:00:00Z,28.3507,-96.0058,2.0,20.71870191,4.126887447,-99999.0,'11133222,11111222,99999999' 
TABS,ioos:station:wmo:42049:1,2013-08-01T09:30:00Z,28.3507,-96.0058,2.0,50.17440061,7.291700762,-99999.0,'11133222,11111222,99999999' 
TABS,ioos:station:wmo:42049:1,2013-08-01T10:00:00Z,28.3507,-96.0058,2.0,100.8317893,2.820248216,-99999.0,'11133222,11111222,99999999' 
TABS,ioos:station:wmo:42049:1,2013-08-01T10:30:00Z,28.3507,-96.0058,2.0,52.87402495,4.026040238,-99999.0,'11133222,11111222,99999999' 
TABS,ioos:station:wmo:42049:1,2013-08-01T11:00:00Z,28.3507,-96.0058,2.0,80.68196923,4.570306335,-99999.0,'11133222,11111222,99999999' 
TABS,ioos:station:wmo:42049:1,2013-08-01T11:30:00Z,28.3507,-96.0058,2.0,66.94177932,4.825525878,-99999.0,'11133222,11111222,99999999' 
TABS,ioos:station:wmo:42049:1,2013-08-01T12:00:00Z,28.3507,-96.0058,2.0,84.68149974,6.688796603,-99999.0,'11133222,11111222,99999999' 
TABS,ioos:station:wmo:42049:1,2013-08-01T12:30:00Z,28.3507,-96.0058,2.0,95.96159258,8.857906073,-99999.0,'11133222,11111222,99999999' 
TABS,ioos:station:wmo:42049:1,2013-08-01T13:00:00Z,28.3507,-96.0058,2.0,112.5502785,8.240006068,-99999.0,'11133222,11111222,99999999' 
TABS,ioos:station:wmo:42049:1,2013-08-01T13:30:00Z,28.3507,-96.0058,2.0,115.9045498,7.759671385,-99999.0,'11133222,11111222,99999999' 
TABS,ioos:station:wmo:42049:1,2013-08-01T14:00:00Z,28.3507,-96.0058,2.0,117.2053476,6.802543642,-99999.0,'11133222,11111222,99999999' 
TABS,ioos:station:wmo:42049:1,2013-08-01T14:30:00Z,28.3507,-96.0058,2.0,123.8128088,10.35072944,-99999.0,'11111222,11111222,99999999' 
TABS,ioos:station:wmo:42049:1,2013-08-01T15:00:00Z,28.3507,-96.0058,2.0,129.6595995,10.56051609,-99999.0,'11111222,11111222,99999999' 
TABS,ioos:station:wmo:42049:1,2013-08-01T15:30:00Z,28.3507,-96.0058,2.0,128.0454055,12.67266744,-99999.0,'11111222,11111222,99999999' 
TABS,ioos:station:wmo:42049:1,2013-08-01T16:00:00Z,28.3507,-96.0058,2.0,149.2714582,11.2726971,-99999.0,'11111222,11111222,99999999' 
TABS,ioos:station:wmo:42049:1,2013-08-01T16:30:00Z,28.3507,-96.0058,2.0,149.9576337,13.86230861,-99999.0,'11111222,11111222,99999999' 
TABS,ioos:station:wmo:42049:1,2013-08-01T17:00:00Z,28.3507,-96.0058,2.0,139.5366021,12.15790278,-99999.0,'11111222,11111222,99999999' 
TABS,ioos:station:wmo:42049:1,2013-08-01T17:30:00Z,28.3507,-96.0058,2.0,154.3976619,11.17744604,-99999.0,'11111222,11111222,99999999' 
TABS,ioos:station:wmo:42049:1,2013-08-01T18:00:00Z,28.3507,-96.0058,2.0,156.4475809,14.89043317,-99999.0,'11111222,11111222,99999999' 
TABS,ioos:station:wmo:42049:1,2013-08-01T18:30:00Z,28.3507,-96.0058,2.0,151.4393088,13.74226328,-99999.0,'11111222,11111222,99999999' 
TABS,ioos:station:wmo:42049:1,2013-08-01T19:00:00Z,28.3507,-96.0058,2.0,161.9279352,13.47473562,-99999.0,'11111222,11111222,99999999' 
TABS,ioos:station:wmo:42049:1,2013-08-01T19:30:00Z,28.3507,-96.0058,2.0,171.3699727,15.72806727,-99999.0,'11111222,11111222,99999999' 
TABS,ioos:station:wmo:42049:1,2013-08-01T20:00:00Z,28.3507,-96.0058,2.0,172.1744115,15.42363122,-99999.0,'11111222,11111222,99999999' 
TABS,ioos:station:wmo:42049:1,2013-08-01T20:30:00Z,28.3507,-96.0058,2.0,175.2592901,16.45629363,-99999.0,'11111222,11111222,99999999' 
TABS,ioos:station:wmo:42049:1,2013-08-01T21:00:00Z,28.3507,-96.0058,2.0,164.2486527,15.80342368,-99999.0,'11111222,11111222,99999999' 
TABS,ioos:station:wmo:42049:1,2013-08-01T21:30:00Z,28.3507,-96.0058,2.0,168.1829737,16.84703535,-99999.0,'11111222,11111222,99999999' 
TABS,ioos:station:wmo:42049:1,2013-08-01T22:00:00Z,28.3507,-96.0058,2.0,165.4415157,14.64005806,-99999.0,'11111222,11111222,99999999' 
TABS,ioos:station:wmo:42049:1,2013-08-01T22:30:00Z,28.3507,-96.0058,2.0,167.9482337,15.75729038,-99999.0,'11111222,11111222,99999999' 
TABS,ioos:station:wmo:42049:1,2013-08-01T23:00:00Z,28.3507,-96.0058,2.0,180.786151,10.20096074,-99999.0,'11111222,11111222,99999999' 
TABS,ioos:station:wmo:42049:1,2013-08-01T23:30:00Z,28.3507,-96.0058,2.0,178.7530735,9.192176021,-99999.0,'11133222,11111222,99999999' 
TABS,ioos:station:wmo:42049:1,2013-08-02T00:00:00Z,28.3507,-96.0058,2.0,204.7038419,6.197176777,-99999.0,'11133222,11111222,99999999' 
TABS,ioos:station:wmo:42049:1,2013-08-02T00:30:00Z,28.3507,-96.0058,2.0,196.1243084,6.589218467,-99999.0,'11133222,11111222,99999999' 
TABS,ioos:station:wmo:42049:1,2013-08-02T01:00:00Z,28.3507,-96.0058,2.0,238.1722069,4.437172523,-99999.0,'11133222,11111222,99999999' 
TABS,ioos:station:wmo:42049:1,2013-08-02T01:30:00Z,28.3507,-96.0058,2.0,255.4359205,6.323171673,-99999.0,'11133222,11111222,99999999' 
TABS,ioos:station:wmo:42049:1,2013-08-02T02:00:00Z,28.3507,-96.0058,2.0,262.4702327,5.800008621,-99999.0,'11133222,11111222,99999999' 
TABS,ioos:station:wmo:42049:1,2013-08-02T02:30:00Z,28.3507,-96.0058,2.0,276.1685886,7.72472006,-99999.0,'11133222,11111222,99999999' 
TABS,ioos:station:wmo:42049:1,2013-08-02T03:00:00Z,28.3507,-96.0058,2.0,306.2864791,6.67434641,-99999.0,'11133222,11111222,99999999' 
TABS,ioos:station:wmo:42049:1,2013-08-02T03:30:00Z,28.3507,-96.0058,2.0,287.1428771,9.533530301,-99999.0,'11133222,11111222,99999999' 
TABS,ioos:station:wmo:42049:1,2013-08-02T04:00:00Z,28.3507,-96.0058,2.0,289.1477358,9.664667609,-99999.0,'11133222,11111222,99999999' 
TABS,ioos:station:wmo:42049:1,2013-08-02T04:30:00Z,28.3507,-96.0058,2.0,310.5533767,10.30528505,-99999.0,'11111222,11111222,99999999' 
TABS,ioos:station:wmo:42049:1,2013-08-02T05:00:00Z,28.3507,-96.0058,2.0,318.9199105,8.172056045,-99999.0,'11133222,11111222,99999999' 
TABS,ioos:station:wmo:42049:1,2013-08-02T05:30:00Z,28.3507,-96.0058,2.0,325.2983519,10.67964419,-99999.0,'11111222,11111222,99999999' 
TABS,ioos:station:wmo:42049:1,2013-08-02T06:00:00Z,28.3507,-96.0058,2.0,324.7062825,7.926998171,-99999.0,'11133222,11111222,99999999' 
TABS,ioos:station:wmo:42049:1,2013-08-02T06:30:00Z,28.3507,-96.0058,2.0,337.8996979,7.468768305,-99999.0,'11133222,11111222,99999999' 
TABS,ioos:station:wmo:42049:1,2013-08-02T07:00:00Z,28.3507,-96.0058,2.0,0.733021777,8.60070346,-99999.0,'11133222,11111222,99999999' 
TABS,ioos:station:wmo:42049:1,2013-08-02T07:30:00Z,28.3507,-96.0058,2.0,11.51720828,6.511098218,-99999.0,'11133222,11111222,99999999' 
TABS,ioos:station:wmo:42049:1,2013-08-02T08:00:00Z,28.3507,-96.0058,2.0,18.70860166,5.300037736,-99999.0,'11133222,11111222,99999999' 
TABS,ioos:station:wmo:42049:1,2013-08-02T08:30:00Z,28.3507,-96.0058,2.0,25.55377995,7.093912884,-99999.0,'11133222,11111222,99999999' 
TABS,ioos:station:wmo:42049:1,2013-08-02T09:00:00Z,28.3507,-96.0058,2.0,37.05171994,7.568038055,-99999.0,'11133222,11111222,99999999' 
TABS,ioos:station:wmo:42049:1,2013-08-02T09:30:00Z,28.3507,-96.0058,2.0,53.32283539,10.11205716,-99999.0,'11111222,11111222,99999999' 
TABS,ioos:station:wmo:42049:1,2013-08-02T10:00:00Z,28.3507,-96.0058,2.0,52.48872945,7.324459024,-99999.0,'11133222,11111222,99999999' 
TABS,ioos:station:wmo:42049:1,2013-08-02T10:30:00Z,28.3507,-96.0058,2.0,63.75871171,7.124226274,-99999.0,'11133222,11111222,99999999' 
TABS,ioos:station:wmo:42049:1,2013-08-02T11:00:00Z,28.3507,-96.0058,2.0,62.60268724,5.541561152,-99999.0,'11133222,11111222,99999999' 
TABS,ioos:station:wmo:42049:1,2013-08-02T11:30:00Z,28.3507,-96.0058,2.0,93.21805376,4.987865275,-99999.0,'11133222,11111222,99999999' 
TABS,ioos:station:wmo:42049:1,2013-08-02T12:00:00Z,28.3507,-96.0058,2.0,93.02757598,8.141363522,-99999.0,'11133222,11111222,99999999' 
TABS,ioos:station:wmo:42049:1,2013-08-02T12:30:00Z,28.3507,-96.0058,2.0,96.83501998,11.76360489,-99999.0,'11111222,11111222,99999999' 
TABS,ioos:station:wmo:42049:1,2013-08-02T13:00:00Z,28.3507,-96.0058,2.0,109.7827898,10.75471989,-99999.0,'11111222,11111222,99999999' 
TABS,ioos:station:wmo:42049:1,2013-08-02T13:30:00Z,28.3507,-96.0058,2.0,111.0345553,14.1531092,-99999.0,'11111222,11111222,99999999' 
TABS,ioos:station:wmo:42049:1,2013-08-02T14:00:00Z,28.3507,-96.0058,2.0,122.0952865,14.84952861,-99999.0,'11111222,11111222,99999999' 
TABS,ioos:station:wmo:42049:1,2013-08-02T14:30:00Z,28.3507,-96.0058,2.0,127.9301715,15.45464655,-99999.0,'11111222,11111222,99999999' 
TABS,ioos:station:wmo:42049:1,2013-08-02T15:00:00Z,28.3507,-96.0058,2.0,126.4663276,14.20035211,-99999.0,'11111222,11111222,99999999' 
TABS,ioos:station:wmo:42049:1,2013-08-02T15:30:00Z,28.3507,-96.0058,2.0,143.558553,13.63638148,-99999.0,'11111222,11111222,99999999' 
TABS,ioos:station:wmo:42049:1,2013-08-02T16:00:00Z,28.3507,-96.0058,2.0,148.5465241,14.85231968,-99999.0,'11111222,11111222,99999999' 
TABS,ioos:station:wmo:42049:1,2013-08-02T16:30:00Z,28.3507,-96.0058,2.0,152.8148209,14.05227384,-99999.0,'11111222,11111222,99999999' 
TABS,ioos:station:wmo:42049:1,2013-08-02T17:00:00Z,28.3507,-96.0058,2.0,154.7231455,14.12210324,-99999.0,'11111222,11111222,99999999' 
TABS,ioos:station:wmo:42049:1,2013-08-02T17:30:00Z,28.3507,-96.0058,2.0,154.1948971,13.48467649,-99999.0,'11111222,11111222,99999999' 
TABS,ioos:station:wmo:42049:1,2013-08-02T18:00:00Z,28.3507,-96.0058,2.0,167.9438668,13.40567417,-99999.0,'11111222,11111222,99999999' 
TABS,ioos:station:wmo:42049:1,2013-08-02T18:30:00Z,28.3507,-96.0058,2.0,169.8146535,14.98616028,-99999.0,'11111222,11111222,99999999' 
TABS,ioos:station:wmo:42049:1,2013-08-02T19:00:00Z,28.3507,-96.0058,2.0,171.5114408,14.70103738,-99999.0,'11111222,11111222,99999999' 
TABS,ioos:station:wmo:42049:1,2013-08-02T19:30:00Z,28.3507,-96.0058,2.0,171.73411,13.14656609,-99999.0,'11111222,11111222,99999999' 
TABS,ioos:station:wmo:42049:1,2013-08-02T20:00:00Z,28.3507,-96.0058,2.0,183.0042627,14.49993103,-99999.0,'11111222,11111222,99999999' 
TABS,ioos:station:wmo:42049:1,2013-08-02T20:30:00Z,28.3507,-96.0058,2.0,191.0236964,15.32274453,-99999.0,'11111222,11111222,99999999' 
TABS,ioos:station:wmo:42049:1,2013-08-02T21:00:00Z,28.3507,-96.0058,2.0,203.5414681,15.34737111,-99999.0,'11111222,11111222,99999999' 
TABS,ioos:station:wmo:42049:1,2013-08-02T21:30:00Z,28.3507,-96.0058,2.0,200.0497461,16.83000297,-99999.0,'11111222,11111222,99999999' 
TABS,ioos:station:wmo:42049:1,2013-08-02T22:00:00Z,28.3507,-96.0058,2.0,208.2312519,17.37712577,-99999.0,'11111222,11111222,99999999' 
TABS,ioos:station:wmo:42049:1,2013-08-02T22:30:00Z,28.3507,-96.0058,2.0,211.2278861,16.72300511,-99999.0,'11111222,11111222,99999999' 
TABS,ioos:station:wmo:42049:1,2013-08-02T23:00:00Z,28.3507,-96.0058,2.0,210.995379,15.39886035,-99999.0,'11111222,11111222,99999999' 
TABS,ioos:station:wmo:42049:1,2013-08-02T23:30:00Z,28.3507,-96.0058,2.0,216.1681647,17.31729771,-99999.0,'11111222,11111222,99999999' 
TABS,ioos:station:wmo:42049:1,2013-08-03T00:00:00Z,28.3507,-96.0058,2.0,248.150678,15.66526412,-99999.0,'11111222,11111222,99999999' 
TABS,ioos:station:wmo:42049:1,2013-08-03T00:30:00Z,28.3507,-96.0058,2.0,264.0813378,17.84511418,-99999.0,'11111222,11111222,99999999' 
TABS,ioos:station:wmo:42049:1,2013-08-03T01:00:00Z,28.3507,-96.0058,2.0,273.1603762,17.59675538,-99999.0,'11111222,11111222,99999999' 
TABS,ioos:station:wmo:42049:1,2013-08-03T01:30:00Z,28.3507,-96.0058,2.0,280.5804856,16.01222033,-99999.0,'11111222,11111222,99999999' 
TABS,ioos:station:wmo:42049:1,2013-08-03T02:00:00Z,28.3507,-96.0058,2.0,286.5203801,20.81941402,-99999.0,'11111222,11111222,99999999' 
TABS,ioos:station:wmo:42049:1,2013-08-03T02:30:00Z,28.3507,-96.0058,2.0,285.9936123,19.74421434,-99999.0,'11111222,11111222,99999999' 
TABS,ioos:station:wmo:42049:1,2013-08-03T03:00:00Z,28.3507,-96.0058,2.0,290.8163294,19.86676874,-99999.0,'11111222,11111222,99999999' 
TABS,ioos:station:wmo:42049:1,2013-08-03T03:30:00Z,28.3507,-96.0058,2.0,297.8484432,18.77426164,-99999.0,'11111222,11111222,99999999' 
TABS,ioos:station:wmo:42049:1,2013-08-03T04:00:00Z,28.3507,-96.0058,2.0,299.9819902,19.81099695,-99999.0,'11111222,11111222,99999999' 
TABS,ioos:station:wmo:42049:1,2013-08-03T04:30:00Z,28.3507,-96.0058,2.0,305.4307607,18.62987923,-99999.0,'11111222,11111222,99999999' 
TABS,ioos:station:wmo:42049:1,2013-08-03T05:00:00Z,28.3507,-96.0058,2.0,312.3353668,14.44767455,-99999.0,'11111222,11111222,99999999' 
TABS,ioos:station:wmo:42049:1,2013-08-03T05:30:00Z,28.3507,-96.0058,2.0,320.286535,13.5847304,-99999.0,'11111222,11111222,99999999' 
TABS,ioos:station:wmo:42049:1,2013-08-03T06:00:00Z,28.3507,-96.0058,2.0,329.2275907,16.45709573,-99999.0,'11111222,11111222,99999999' 
TABS,ioos:station:wmo:42049:1,2013-08-03T06:30:00Z,28.3507,-96.0058,2.0,331.1385882,15.28909742,-99999.0,'11111222,11111222,99999999' 
TABS,ioos:station:wmo:42049:1,2013-08-03T07:00:00Z,28.3507,-96.0058,2.0,340.1048256,14.51640796,-99999.0,'11111222,11111222,99999999' 
TABS,ioos:station:wmo:42049:1,2013-08-03T07:30:00Z,28.3507,-96.0058,2.0,344.0488605,13.1357908,-99999.0,'11111222,11111222,99999999' 
TABS,ioos:station:wmo:42049:1,2013-08-03T08:00:00Z,28.3507,-96.0058,2.0,348.8307347,14.40281223,-99999.0,'11111222,11111222,99999999' 
TABS,ioos:station:wmo:42049:1,2013-08-03T08:30:00Z,28.3507,-96.0058,2.0,354.0533613,12.54752565,-99999.0,'11111222,11111222,99999999' 
TABS,ioos:station:wmo:42049:1,2013-08-03T09:00:00Z,28.3507,-96.0058,2.0,1.976800932,11.88707281,-99999.0,'11111222,11111222,99999999' 
TABS,ioos:station:wmo:42049:1,2013-08-03T09:30:00Z,28.3507,-96.0058,2.0,2.026474502,9.616012687,-99999.0,'11133222,11111222,99999999' 
TABS,ioos:station:wmo:42049:1,2013-08-03T10:00:00Z,28.3507,-96.0058,2.0,13.89313111,6.788593374,-99999.0,'11133222,11111222,99999999' 
TABS,ioos:station:wmo:42049:1,2013-08-03T10:30:00Z,28.3507,-96.0058,2.0,16.10531488,7.390027064,-99999.0,'11133222,11111222,99999999' 
TABS,ioos:station:wmo:42049:1,2013-08-03T11:00:00Z,28.3507,-96.0058,2.0,34.87750374,6.96020833,-99999.0,'11133222,11111222,99999999' 
TABS,ioos:station:wmo:42049:1,2013-08-03T11:30:00Z,28.3507,-96.0058,2.0,38.89733985,4.522830972,-99999.0,'11133222,11111222,99999999' 
TABS,ioos:station:wmo:42049:1,2013-08-03T12:00:00Z,28.3507,-96.0058,2.0,63.31192704,4.163568181,-99999.0,'11133222,11111222,99999999' 
TABS,ioos:station:wmo:42049:1,2013-08-03T12:30:00Z,28.3507,-96.0058,2.0,49.86614614,5.585060429,-99999.0,'11133222,11111222,99999999' 
TABS,ioos:station:wmo:42049:1,2013-08-03T13:00:00Z,28.3507,-96.0058,2.0,103.141039,5.278219397,-99999.0,'11133222,11111222,99999999' 
TABS,ioos:station:wmo:42049:1,2013-08-03T13:30:00Z,28.3507,-96.0058,2.0,131.9255888,2.768772291,-99999.0,'11133222,11111222,99999999' 
TABS,ioos:station:wmo:42049:1,2013-08-03T14:00:00Z,28.3507,-96.0058,2.0,105.6500953,5.597517307,-99999.0,'11133222,11111222,99999999' 
TABS,ioos:station:wmo:42049:1,2013-08-03T14:30:00Z,28.3507,-96.0058,2.0,111.9416741,6.824324142,-99999.0,'11133222,11111222,99999999' 
TABS,ioos:station:wmo:42049:1,2013-08-03T15:00:00Z,28.3507,-96.0058,2.0,103.6659294,5.629369414,-99999.0,'11133222,11111222,99999999' 
TABS,ioos:station:wmo:42049:1,2013-08-03T15:30:00Z,28.3507,-96.0058,2.0,120.3337493,6.395568778,-99999.0,'11133222,11111222,99999999' 
TABS,ioos:station:wmo:42049:1,2013-08-03T16:00:00Z,28.3507,-96.0058,2.0,138.3137828,9.051961113,-99999.0,'11133222,11111222,99999999' 
TABS,ioos:station:wmo:42049:1,2013-08-03T16:30:00Z,28.3507,-96.0058,2.0,142.6829023,9.996304317,-99999.0,'11133222,11111222,99999999' 
TABS,ioos:station:wmo:42049:1,2013-08-03T17:00:00Z,28.3507,-96.0058,2.0,136.8814666,10.76797103,-99999.0,'11111222,11111222,99999999' 
TABS,ioos:station:wmo:42049:1,2013-08-03T17:30:00Z,28.3507,-96.0058,2.0,145.5523819,11.11993705,-99999.0,'11111222,11111222,99999999' 
TABS,ioos:station:wmo:42049:1,2013-08-03T18:00:00Z,28.3507,-96.0058,2.0,150.4595814,11.11482344,-99999.0,'11111222,11111222,99999999' 
TABS,ioos:station:wmo:42049:1,2013-08-03T18:30:00Z,28.3507,-96.0058,2.0,164.1787397,14.56162766,-99999.0,'11111222,11111222,99999999' 
TABS,ioos:station:wmo:42049:1,2013-08-03T19:00:00Z,28.3507,-96.0058,2.0,173.5899704,12.71951257,-99999.0,'11111222,11111222,99999999' 
TABS,ioos:station:wmo:42049:1,2013-08-03T19:30:00Z,28.3507,-96.0058,2.0,170.0342873,13.2905267,-99999.0,'11111222,11111222,99999999' 
TABS,ioos:station:wmo:42049:1,2013-08-03T20:00:00Z,28.3507,-96.0058,2.0,182.3663523,14.77259964,-99999.0,'11111222,11111222,99999999' 
TABS,ioos:station:wmo:42049:1,2013-08-03T20:30:00Z,28.3507,-96.0058,2.0,193.8866635,11.16637811,-99999.0,'11111222,11111222,99999999' 
TABS,ioos:station:wmo:42049:1,2013-08-03T21:00:00Z,28.3507,-96.0058,2.0,206.0121046,9.736292929,-99999.0,'11133222,11111222,99999999' 
TABS,ioos:station:wmo:42049:1,2013-08-03T21:30:00Z,28.3507,-96.0058,2.0,222.1827156,9.352181564,-99999.0,'11133222,11111222,99999999' 
TABS,ioos:station:wmo:42049:1,2013-08-03T22:00:00Z,28.3507,-96.0058,2.0,220.7391113,9.898565553,-99999.0,'11133222,11111222,99999999' 
TABS,ioos:station:wmo:42049:1,2013-08-03T22:30:00Z,28.3507,-96.0058,2.0,235.4991983,10.9813888,-99999.0,'11111222,11111222,99999999' 
TABS,ioos:station:wmo:42049:1,2013-08-03T23:00:00Z,28.3507,-96.0058,2.0,249.2109819,12.39710047,-99999.0,'11111222,11111222,99999999' 
TABS,ioos:station:wmo:42049:1,2013-08-03T23:30:00Z,28.3507,-96.0058,2.0,247.2841533,11.5238622,-99999.0,'11111222,11111222,99999999' 
TABS,ioos:station:wmo:42049:1,2013-08-04T00:00:00Z,28.3507,-96.0058,2.0,255.7678209,12.08076984,-99999.0,'11111222,11111222,99999999' 
TABS,ioos:station:wmo:42049:1,2013-08-04T00:30:00Z,28.3507,-96.0058,2.0,259.8836672,13.83507499,-99999.0,'11111222,11111222,99999999' 
TABS,ioos:station:wmo:42049:1,2013-08-04T01:00:00Z,28.3507,-96.0058,2.0,280.2351997,12.43791381,-99999.0,'11111222,11111222,99999999' 
TABS,ioos:station:wmo:42049:1,2013-08-04T01:30:00Z,28.3507,-96.0058,2.0,281.9719101,11.04011322,-99999.0,'11111222,11111222,99999999' 
TABS,ioos:station:wmo:42049:1,2013-08-04T02:00:00Z,28.3507,-96.0058,2.0,294.2755492,13.76728368,-99999.0,'11111222,11111222,99999999' 
TABS,ioos:station:wmo:42049:1,2013-08-04T02:30:00Z,28.3507,-96.0058,2.0,294.1321036,13.06147006,-99999.0,'11111222,11111222,99999999' 
TABS,ioos:station:wmo:42049:1,2013-08-04T03:00:00Z,28.3507,-96.0058,2.0,297.1146043,15.86339497,-99999.0,'11111222,11111222,99999999' 
TABS,ioos:station:wmo:42049:1,2013-08-04T03:30:00Z,28.3507,-96.0058,2.0,295.7729896,16.16831779,-99999.0,'11111222,11111222,99999999' 
TABS,ioos:station:wmo:42049:1,2013-08-04T04:00:00Z,28.3507,-96.0058,2.0,299.3517048,14.62776128,-99999.0,'11111222,11111222,99999999' 
TABS,ioos:station:wmo:42049:1,2013-08-04T04:30:00Z,28.3507,-96.0058,2.0,298.9141444,14.62275282,-99999.0,'11111222,11111222,99999999' 
TABS,ioos:station:wmo:42049:1,2013-08-04T05:00:00Z,28.3507,-96.0058,2.0,309.722395,12.29923575,-99999.0,'11111222,11111222,99999999' 
TABS,ioos:station:wmo:42049:1,2013-08-04T05:30:00Z,28.3507,-96.0058,2.0,313.2570733,13.01678916,-99999.0,'11111222,11111222,99999999' 
TABS,ioos:station:wmo:42049:1,2013-08-04T06:00:00Z,28.3507,-96.0058,2.0,313.7505328,13.94039096,-99999.0,'11111222,11111222,99999999' 
TABS,ioos:station:wmo:42049:1,2013-08-04T06:30:00Z,28.3507,-96.0058,2.0,318.4429462,14.36605026,-99999.0,'11111222,11111222,99999999' 
TABS,ioos:station:wmo:42049:1,2013-08-04T07:00:00Z,28.3507,-96.0058,2.0,324.1713225,11.88996215,-99999.0,'11111222,11111222,99999999' 
TABS,ioos:station:wmo:42049:1,2013-08-04T07:30:00Z,28.3507,-96.0058,2.0,333.8549622,12.20925878,-99999.0,'11111222,11111222,99999999' 
TABS,ioos:station:wmo:42049:1,2013-08-04T08:00:00Z,28.3507,-96.0058,2.0,343.372793,6.115725632,-99999.0,'11133222,11111222,99999999' 
TABS,ioos:station:wmo:42049:1,2013-08-04T08:30:00Z,28.3507,-96.0058,2.0,4.002923238,7.879219504,-99999.0,'11133222,11111222,99999999' 
TABS,ioos:station:wmo:42049:1,2013-08-04T09:00:00Z,28.3507,-96.0058,2.0,3.012990918,4.946837374,-99999.0,'11133222,11111222,99999999' 
TABS,ioos:station:wmo:42049:1,2013-08-04T09:30:00Z,28.3507,-96.0058,2.0,22.17809572,1.695435047,-99999.0,'11133222,11111222,99999999' 
TABS,ioos:station:wmo:42049:1,2013-08-04T10:00:00Z,28.3507,-96.0058,2.0,341.676992,3.244503044,-99999.0,'11133222,11111222,99999999' 
TABS,ioos:station:wmo:42049:1,2013-08-04T10:30:00Z,28.3507,-96.0058,2.0,344.3185611,4.476628195,-99999.0,'11133222,11111222,99999999' 
TABS,ioos:station:wmo:42049:1,2013-08-04T11:00:00Z,28.3507,-96.0058,2.0,341.7986869,3.105382424,-99999.0,'11133222,11111222,99999999' 
TABS,ioos:station:wmo:42049:1,2013-08-04T11:30:00Z,28.3507,-96.0058,2.0,91.3765251,5.411561697,-99999.0,'11133222,11111222,99999999' 
TABS,ioos:station:wmo:42049:1,2013-08-04T12:00:00Z,28.3507,-96.0058,2.0,117.6402764,4.289533774,-99999.0,'11133222,11111222,99999999' 
TABS,ioos:station:wmo:42049:1,2013-08-04T12:30:00Z,28.3507,-96.0058,2.0,135.9438441,5.579829747,-99999.0,'11133222,11111222,99999999' 
TABS,ioos:station:wmo:42049:1,2013-08-04T13:00:00Z,28.3507,-96.0058,2.0,144.8305638,7.413265138,-99999.0,'11133222,11111222,99999999' 
TABS,ioos:station:wmo:42049:1,2013-08-04T13:30:00Z,28.3507,-96.0058,2.0,150.1576467,6.57136972,-99999.0,'11133222,11111222,99999999' 
TABS,ioos:station:wmo:42049:1,2013-08-04T14:00:00Z,28.3507,-96.0058,2.0,130.0580513,7.551688553,-99999.0,'11133222,11111222,99999999' 
TABS,ioos:station:wmo:42049:1,2013-08-04T14:30:00Z,28.3507,-96.0058,2.0,132.5253413,7.042279461,-99999.0,'11133222,11111222,99999999' 
TABS,ioos:station:wmo:42049:1,2013-08-04T15:00:00Z,28.3507,-96.0058,2.0,133.1145668,6.232984839,-99999.0,'11133222,11111222,99999999' 
TABS,ioos:station:wmo:42049:1,2013-08-04T15:30:00Z,28.3507,-96.0058,2.0,140.9930723,6.704662557,-99999.0,'11133222,11111222,99999999' 
TABS,ioos:station:wmo:42049:1,2013-08-04T16:00:00Z,28.3507,-96.0058,2.0,135.5186066,8.591699483,-99999.0,'11133222,11111222,99999999' 